CFG295 LOWS-EDDS

Flight info

Callsign CFG295
Flight time 0h 38m
Altitude 22000
Route TITIG L173 DODIL T127 TEKSI TEKSI1W
Aircraft A321/M-SDE3FGHIRWY/LB1

Departure

Time 2026-05-04 12:29
Airport Salzburg Airport (LOWS)

Arrival

Time 2026-05-04 13:08
Airport Stuttgart Airport (EDDS)
Time Latitude Longitude Altitude Speed Heading
2026-05-04 12:16 47.79093 12.99970 1422 ft 0 kts 280°
2026-05-04 12:22 47.79090 12.99994 1422 ft 4 kts 275°
2026-05-04 12:23 47.79091 13.00033 1422 ft 4 kts 251°
2026-05-04 12:23 47.79101 13.00058 1422 ft 4 kts 178°
2026-05-04 12:23 47.79110 13.00056 1422 ft 1 kts 157°
2026-05-04 12:23 47.79111 13.00055 1422 ft 0 kts 157°
2026-05-04 12:25 47.79094 13.00066 1422 ft 7 kts 157°
2026-05-04 12:26 47.79054 13.00091 1422 ft 6 kts 157°
2026-05-04 12:26 47.79023 13.00110 1422 ft 4 kts 157°
2026-05-04 12:26 47.78979 13.00141 1422 ft 11 kts 149°
2026-05-04 12:26 47.78951 13.00273 1422 ft 18 kts 94°
2026-05-04 12:27 47.78883 13.00411 1421 ft 18 kts 159°
2026-05-04 12:27 47.78775 13.00480 1423 ft 16 kts 156°
2026-05-04 12:27 47.78678 13.00541 1421 ft 14 kts 157°
2026-05-04 12:27 47.78596 13.00592 1422 ft 12 kts 157°
2026-05-04 12:28 47.78534 13.00653 1421 ft 10 kts 121°
2026-05-04 12:28 47.78540 13.00754 1420 ft 10 kts 70°
2026-05-04 12:28 47.78558 13.00822 1420 ft 11 kts 67°
2026-05-04 12:28 47.78611 13.00853 1423 ft 9 kts 343°
2026-05-04 12:29 47.78756 13.00760 1421 ft 52 kts 336°
2026-05-04 12:29 47.79293 13.00422 1422 ft 112 kts 337°
2026-05-04 12:29 47.80166 12.99887 1448 ft 154 kts 338°
2026-05-04 12:29 47.81108 12.99310 2154 ft 144 kts 339°
2026-05-04 12:30 47.82037 12.98648 2628 ft 153 kts 325°
2026-05-04 12:30 47.82774 12.97385 2865 ft 176 kts 300°
2026-05-04 12:30 47.83401 12.95680 3078 ft 197 kts 302°
2026-05-04 12:30 47.84150 12.93846 3296 ft 217 kts 303°
2026-05-04 12:31 47.84947 12.91811 3435 ft 238 kts 302°
2026-05-04 12:31 47.85808 12.89571 3736 ft 257 kts 302°
2026-05-04 12:31 47.86730 12.87162 4163 ft 274 kts 302°
2026-05-04 12:31 47.87681 12.84678 4945 ft 279 kts 301°
2026-05-04 12:32 47.88650 12.82150 5755 ft 282 kts 298°
2026-05-04 12:32 47.90611 12.77030 7379 ft 285 kts 297°
2026-05-04 12:32 47.91696 12.74558 8168 ft 288 kts 307°
2026-05-04 12:33 47.93146 12.72454 8927 ft 293 kts 316°
2026-05-04 12:33 47.94694 12.70465 9695 ft 296 kts 316°
2026-05-04 12:33 47.96268 12.68434 10271 ft 305 kts 316°
2026-05-04 12:33 47.97929 12.66274 10423 ft 328 kts 316°
2026-05-04 12:34 47.99707 12.63955 10540 ft 351 kts 316°
2026-05-04 12:34 48.01582 12.61506 10673 ft 372 kts 316°
2026-05-04 12:34 48.03558 12.58849 10795 ft 391 kts 313°
2026-05-04 12:34 48.05325 12.55692 11084 ft 400 kts 302°
2026-05-04 12:35 48.06712 12.52099 11597 ft 401 kts 292°
2026-05-04 12:35 48.07718 12.48197 12160 ft 403 kts 287°
2026-05-04 12:35 48.08655 12.44231 12730 ft 405 kts 287°
2026-05-04 12:35 48.09597 12.40240 13302 ft 408 kts 287°
2026-05-04 12:36 48.10542 12.36226 13853 ft 411 kts 287°
2026-05-04 12:36 48.11461 12.32172 14351 ft 412 kts 283°
2026-05-04 12:36 48.12166 12.28008 14853 ft 414 kts 281°
2026-05-04 12:36 48.12822 12.23796 15341 ft 416 kts 280°
2026-05-04 12:37 48.13446 12.19560 15831 ft 418 kts 280°
2026-05-04 12:37 48.14055 12.15341 16327 ft 421 kts 280°
2026-05-04 12:37 48.14675 12.11051 16812 ft 423 kts 280°
2026-05-04 12:37 48.15307 12.06732 17310 ft 426 kts 280°
2026-05-04 12:38 48.15950 12.02389 17809 ft 429 kts 280°
2026-05-04 12:38 48.16607 11.98007 18250 ft 433 kts 281°
2026-05-04 12:38 48.17271 11.93591 18649 ft 436 kts 281°
2026-05-04 12:38 48.17939 11.89150 19045 ft 438 kts 281°
2026-05-04 12:39 48.18604 11.84681 19459 ft 440 kts 280°
2026-05-04 12:39 48.19267 11.80183 19836 ft 443 kts 280°
2026-05-04 12:39 48.19929 11.75664 20230 ft 445 kts 280°
2026-05-04 12:39 48.20591 11.71115 20611 ft 448 kts 280°
2026-05-04 12:40 48.21255 11.66536 20983 ft 450 kts 280°
2026-05-04 12:40 48.21923 11.61936 21356 ft 453 kts 280°
2026-05-04 12:40 48.22593 11.57308 21723 ft 455 kts 280°
2026-05-04 12:40 48.23265 11.52667 22074 ft 457 kts 280°
2026-05-04 12:41 48.23940 11.47993 22421 ft 459 kts 280°
2026-05-04 12:41 48.24611 11.43307 22784 ft 461 kts 280°
2026-05-04 12:41 48.25291 11.38659 23140 ft 464 kts 282°
2026-05-04 12:41 48.26338 11.34058 23491 ft 469 kts 291°
2026-05-04 12:42 48.27880 11.29717 23784 ft 474 kts 300°
2026-05-04 12:42 48.29886 11.25762 24062 ft 479 kts 309°
2026-05-04 12:42 48.32212 11.22160 24413 ft 480 kts 311°
2026-05-04 12:42 48.34540 11.18581 24833 ft 478 kts 311°
2026-05-04 12:43 48.36850 11.15001 25251 ft 476 kts 311°
2026-05-04 12:43 48.39146 11.11424 25645 ft 475 kts 311°
2026-05-04 12:43 48.41436 11.07846 25932 ft 474 kts 311°
2026-05-04 12:43 48.43723 11.04268 25997 ft 475 kts 311°
2026-05-04 12:44 48.46019 11.00673 26003 ft 476 kts 311°
2026-05-04 12:44 48.48319 10.97073 26000 ft 477 kts 311°
2026-05-04 12:44 48.50615 10.93472 26005 ft 477 kts 310°
2026-05-04 12:44 48.52899 10.89849 25998 ft 476 kts 310°
2026-05-04 12:45 48.55174 10.86208 26005 ft 477 kts 310°
2026-05-04 12:45 48.57441 10.82558 25998 ft 477 kts 310°
2026-05-04 12:45 48.59704 10.78911 26000 ft 477 kts 310°
2026-05-04 12:45 48.61981 10.75265 26002 ft 477 kts 310°
2026-05-04 12:46 48.64273 10.71622 26003 ft 477 kts 310°
2026-05-04 12:46 48.66563 10.67996 26000 ft 477 kts 310°
2026-05-04 12:46 48.68697 10.64193 26012 ft 473 kts 302°
2026-05-04 12:46 48.70362 10.59927 26010 ft 469 kts 292°
2026-05-04 12:47 48.71511 10.55342 26001 ft 464 kts 283°
2026-05-04 12:47 48.72139 10.50564 26006 ft 461 kts 274°
2026-05-04 12:47 48.72246 10.45737 26016 ft 458 kts 265°
2026-05-04 12:47 48.71912 10.40944 26010 ft 457 kts 261°
2026-05-04 12:48 48.71518 10.36162 26007 ft 458 kts 261°
2026-05-04 12:48 48.71124 10.31378 26002 ft 458 kts 261°
2026-05-04 12:48 48.70729 10.26597 25981 ft 457 kts 261°
2026-05-04 12:48 48.70340 10.21899 25267 ft 455 kts 261°
2026-05-04 12:49 48.69941 10.17142 24808 ft 458 kts 261°
2026-05-04 12:49 48.69530 10.12330 24569 ft 462 kts 261°
2026-05-04 12:49 48.69118 10.07510 24334 ft 462 kts 261°
2026-05-04 12:49 48.68757 10.02685 24109 ft 462 kts 262°
2026-05-04 12:50 48.68476 9.97841 23878 ft 462 kts 263°
2026-05-04 12:50 48.68256 9.92994 23634 ft 461 kts 264°
2026-05-04 12:50 48.68072 9.88153 23381 ft 460 kts 264°
2026-05-04 12:50 48.67895 9.83333 23114 ft 458 kts 264°
2026-05-04 12:51 48.67708 9.78533 22836 ft 456 kts 264°
2026-05-04 12:51 48.67503 9.73748 22562 ft 454 kts 264°
2026-05-04 12:51 48.67200 9.69032 21876 ft 445 kts 258°
2026-05-04 12:51 48.66473 9.64528 21121 ft 437 kts 250°
2026-05-04 12:52 48.65349 9.60297 20388 ft 431 kts 244°
2026-05-04 12:52 48.64144 9.56228 20173 ft 415 kts 244°
2026-05-04 12:52 48.63011 9.52378 20044 ft 398 kts 244°
2026-05-04 12:52 48.61912 9.48635 19922 ft 381 kts 244°
2026-05-04 12:53 48.60861 9.45053 19800 ft 366 kts 244°
2026-05-04 12:53 48.59844 9.41585 19319 ft 361 kts 244°
2026-05-04 12:53 48.58803 9.38063 18283 ft 374 kts 244°
2026-05-04 12:53 48.57723 9.34422 17063 ft 386 kts 244°
2026-05-04 12:54 48.56604 9.30662 15854 ft 398 kts 244°
2026-05-04 12:54 48.55469 9.26841 15271 ft 393 kts 245°
2026-05-04 12:54 48.54380 9.23162 15134 ft 376 kts 245°
2026-05-04 12:54 48.53337 9.19633 15016 ft 361 kts 245°
2026-05-04 12:55 48.52332 9.16247 14874 ft 347 kts 244°
2026-05-04 12:55 48.51362 9.12995 14746 ft 333 kts 244°
2026-05-04 12:55 48.50426 9.09868 14634 ft 321 kts 244°
2026-05-04 12:55 48.49522 9.06860 14509 ft 309 kts 244°
2026-05-04 12:56 48.48650 9.03960 14400 ft 298 kts 244°
2026-05-04 12:56 48.47803 9.01153 14150 ft 292 kts 244°
2026-05-04 12:56 48.46965 8.98383 13827 ft 289 kts 244°
2026-05-04 12:56 48.46146 8.95671 13427 ft 288 kts 244°
2026-05-04 12:57 48.45323 8.92932 13021 ft 286 kts 244°
2026-05-04 12:57 48.44665 8.90103 12625 ft 287 kts 257°
2026-05-04 12:57 48.44558 8.87094 12237 ft 290 kts 273°
2026-05-04 12:57 48.45036 8.84138 11853 ft 294 kts 288°
2026-05-04 12:58 48.45795 8.81270 11456 ft 294 kts 289°
2026-05-04 12:58 48.46546 8.78404 11091 ft 293 kts 288°
2026-05-04 12:58 48.47290 8.75544 10708 ft 292 kts 288°
2026-05-04 12:58 48.48025 8.72707 10156 ft 289 kts 288°
2026-05-04 12:59 48.48748 8.69895 9992 ft 291 kts 289°
2026-05-04 12:59 48.49485 8.67032 9994 ft 295 kts 289°
2026-05-04 12:59 48.50364 8.64262 9990 ft 295 kts 304°
2026-05-04 12:59 48.51990 8.62386 9995 ft 301 kts 338°
2026-05-04 13:00 48.54061 8.62022 9891 ft 302 kts
2026-05-04 13:00 48.56001 8.63112 9151 ft 298 kts 34°
2026-05-04 13:00 48.57533 8.65165 8523 ft 294 kts 56°
2026-05-04 13:00 48.58437 8.67859 8328 ft 282 kts 73°
2026-05-04 13:01 48.59040 8.70597 8161 ft 264 kts 74°
2026-05-04 13:01 48.59571 8.73168 7844 ft 251 kts 75°
2026-05-04 13:01 48.60064 8.75663 7334 ft 246 kts 75°
2026-05-04 13:01 48.60542 8.78123 6796 ft 242 kts 75°
2026-05-04 13:02 48.61011 8.80553 6244 ft 240 kts 75°
2026-05-04 13:02 48.61471 8.82970 5901 ft 238 kts 75°
2026-05-04 13:02 48.61912 8.85307 5804 ft 222 kts 74°
2026-05-04 13:02 48.62327 8.87464 5634 ft 207 kts 74°
2026-05-04 13:03 48.62723 8.89516 5371 ft 199 kts 73°
2026-05-04 13:03 48.63106 8.91497 5122 ft 193 kts 73°
2026-05-04 13:03 48.63478 8.93423 4871 ft 188 kts 73°
2026-05-04 13:03 48.63836 8.95278 4627 ft 184 kts 73°
2026-05-04 13:04 48.64186 8.97096 4406 ft 176 kts 73°
2026-05-04 13:04 48.64536 8.98913 4145 ft 180 kts 73°
2026-05-04 13:04 48.64886 9.00734 3918 ft 180 kts 72°
2026-05-04 13:04 48.65236 9.02556 3673 ft 180 kts 72°
2026-05-04 13:05 48.65584 9.04368 3440 ft 179 kts 72°
2026-05-04 13:05 48.65926 9.06154 3228 ft 172 kts 73°
2026-05-04 13:05 48.66251 9.07853 2994 ft 165 kts 73°
2026-05-04 13:05 48.66563 9.09482 2778 ft 155 kts 72°
2026-05-04 13:06 48.66856 9.11043 2569 ft 154 kts 73°
2026-05-04 13:06 48.67135 9.12614 2342 ft 155 kts 73°
2026-05-04 13:06 48.67428 9.14172 2114 ft 150 kts 72°
2026-05-04 13:06 48.67726 9.15650 1939 ft 144 kts 71°
2026-05-04 13:07 48.68007 9.17092 1738 ft 143 kts 73°
2026-05-04 13:07 48.68283 9.18530 1570 ft 142 kts 71°
2026-05-04 13:07 48.68578 9.19961 1384 ft 144 kts 72°
2026-05-04 13:07 48.68847 9.21386 1288 ft 134 kts 72°
2026-05-04 13:08 48.69039 9.22402 1288 ft 58 kts 77°
2026-05-04 13:08 48.69085 9.22548 1286 ft 7 kts 355°
2026-05-04 13:08 48.69127 9.22535 1285 ft 6 kts 346°
2026-05-04 13:08 48.69184 9.22513 1288 ft 10 kts 346°
2026-05-04 13:09 48.69264 9.22471 1286 ft 14 kts 338°
2026-05-04 13:09 48.69295 9.22352 1287 ft 11 kts 253°
2026-05-04 13:09 48.69250 9.22206 1285 ft 20 kts 253°
2026-05-04 13:09 48.69210 9.22002 1285 ft 20 kts 253°
2026-05-04 13:10 48.69181 9.21852 1285 ft 14 kts 253°
2026-05-04 13:10 48.69155 9.21716 1286 ft 13 kts 255°
2026-05-04 13:10 48.69132 9.21590 1289 ft 12 kts 255°
2026-05-04 13:10 48.69110 9.21468 1285 ft 15 kts 255°
2026-05-04 13:11 48.69076 9.21283 1290 ft 19 kts 254°
2026-05-04 13:11 48.69039 9.21092 1287 ft 18 kts 253°
2026-05-04 13:11 48.69003 9.20914 1289 ft 18 kts 253°
2026-05-04 13:11 48.68969 9.20741 1287 ft 17 kts 253°
2026-05-04 13:12 48.68936 9.20577 1285 ft 16 kts 253°
2026-05-04 13:12 48.68907 9.20421 1285 ft 15 kts 255°
2026-05-04 13:12 48.68881 9.20274 1286 ft 14 kts 255°
2026-05-04 13:12 48.68857 9.20135 1287 ft 13 kts 255°
2026-05-04 13:13 48.68833 9.20007 1285 ft 12 kts 253°
2026-05-04 13:13 48.68834 9.19894 1288 ft 10 kts 318°
2026-05-04 13:13 48.68886 9.19835 1287 ft 9 kts 294°
2026-05-04 13:13 48.68876 9.19752 1285 ft 8 kts 249°
2026-05-04 13:14 48.68855 9.19656 1287 ft 11 kts 254°
2026-05-04 13:14 48.68874 9.19606 1286 ft 4 kts 341°
2026-05-04 13:14 48.68893 9.19596 1285 ft 3 kts 340°
2026-05-04 13:14 48.68913 9.19587 1288 ft 1 kts 344°